sat.trackr.live / text

‹ back to catalog

UNKNOWN

NORAD 87764

UNKNOWN UNKNOWN UNKNOWN

§ Identity

Operator
Country
Launch date
Launch site
Launch vehicle
Mass (kg)
RCS (m²)

External: N2YO · Heavens-Above

§ Orbital elements

Epoch: 2026-05-21T19:46:44.751648Z

Period
100.16 min
Inclination
65.6714°
Eccentricity
0.0362061
Mean motion
14.37755866 rev/d
Perigee alt
507.3 km
Apogee alt
1,024.6 km
Semi-major
7,144.1 km
B*
1.6568e-3
RAAN
80.7496°
Arg perigee
353.5321°
Mean anomaly
34.5303°
Rev number
64,211

§ Raw data

UNKNOWN1 87764U          26141.82412907  .00010657  00000+0  16568-2 0  99952 87764  65.6714  80.7496 0362061 353.5321  34.5303 14.37755866642111

JSON: /api/v1/satellites/87764 · /tle

For live sub-satellite position, see the globe view (requires WebGL).

§ Visibility from observer

Set your observer location to see the next 7 days of passes ≥ 10°. The values pass through the URL so the page stays shareable.

No JS? Fill the form by hand. The geolocation button needs JavaScript.